Lapse_Rate
6.3 6.2 5.7 5.9 5.8 6.1 5.7 5.6 5.8 5.9 5.9 6.0 5.9 5.4 4.9 4.1 8.5 9.4 7.7 9.3 6.6 6.0 5.8 5.7 5.9 6.0 5.9 6.1 6.1 6.2 6.2 6.3 6.2
6.0 6.0 5.6 5.3 5.8 6.0 6.0 5.7 5.6 5.4 5.4 5.8 6.0 5.6 4.9 6.4 8.4 8.6 8.6 9.3 5.9 6.3 6.1 6.0 6.1 6.2 6.1 6.1 6.3 6.2 6.2 6.2 6.0
6.1 6.0 6.0 5.5 5.4 5.8 6.0 6.0 6.0 5.8 5.7 5.8 5.8 5.4 4.7 6.2 9.4 8.9 8.7 6.6 5.4 6.4 6.3 6.2 6.2 6.2 6.3 6.3 6.3 6.2 6.2 6.1 6.0
6.1 6.0 5.8 6.1 5.9 5.7 5.8 6.0 6.0 6.0 5.9 6.1 5.9 5.1 4.7 8.2 9.6 9.0 8.9 5.3 5.4 6.6 6.3 6.2 6.2 6.3 6.2 6.1 6.1 6.0 6.0 6.1 6.0
5.4 5.8 6.0 5.9 5.9 6.0 6.0 6.1 6.1 5.9 5.9 5.9 5.9 5.5 4.8 6.9 9.2 8.0 9.4 5.2 5.5 6.7 6.8 6.3 6.1 6.2 6.2 6.2 6.1 6.1 6.0 6.1 6.1
8.1 8.4 6.9 5.9 6.0 6.0 6.0 6.0 6.2 6.2 6.1 5.8 5.8 5.5 8.0 9.3 9.6 9.3 6.9 4.8 5.3 6.1 6.7 6.5 6.2 6.1 5.9 5.8 5.8 5.9 6.0 6.0 6.0
6.4 6.4 5.3 4.9 5.7 5.8 6.1 6.0 5.9 6.3 8.6 8.1 5.9 7.6 9.4 9.6 9.6 9.5 5.6 4.6 5.3 5.9 6.3 6.7 6.5 6.3 6.1 5.8 5.6 5.6 5.7 5.8 6.0
7.0 7.0 7.1 7.4 6.3 7.5 7.4 6.9 7.2 7.5 8.5 8.8 9.5 9.5 9.6 9.7 9.6 9.6 5.4 4.5 5.4 5.8 6.1 6.5 6.9 6.5 6.4 6.2 5.9 5.7 5.6 5.6 5.6
9.7 8.7 7.1 7.1 8.0 8.4 8.8 6.9 7.2 7.4 8.0 8.5 9.0 9.7 9.7 9.7 9.6 9.5 4.9 4.1 5.1 6.0 6.3 6.5 6.6 6.6 6.3 6.5 6.4 6.0 5.6 5.5 5.5
9.7 9.9 8.9 6.4 5.9 7.0 8.5 8.2 7.4 7.4 7.8 8.1 8.5 9.5 9.9 9.7 9.7 9.6 5.4 3.6 4.1 5.0 5.8 6.2 6.5 6.7 6.6 6.4 6.5 6.3 6.1 6.1 5.9
7.9 9.4 9.8 9.8 7.7 6.2 7.0 6.4 7.6 8.6 8.1 7.8 8.6 9.1 9.3 9.7 9.7 9.6 8.8 4.6 3.3 4.1 4.9 5.5 6.1 6.6 7.1 7.2 6.5 6.3 6.3 6.2 6.1
7.8 8.9 9.6 9.9 9.5 7.9 7.0 6.2 6.2 6.5 6.7 7.3 8.3 8.1 9.0 9.5 9.7 8.9 9.5 8.3 2.8 3.2 4.6 5.4 5.9 6.3 6.7 7.2 7.3 6.5 6.2 6.2 6.2
7.9 8.9 9.6 9.8 9.8 9.3 6.8 6.0 5.7 5.8 5.9 5.9 5.3 6.6 7.2 7.9 7.5 7.6 7.2 6.2 7.4 4.6 3.8 4.3 5.2 5.9 6.5 7.1 7.5 7.4 7.1 6.8 6.4
9.5 9.6 9.7 9.8 9.8 9.7 9.1 5.7 5.3 5.3 5.3 5.6 5.5 5.3 4.9 4.9 5.7 6.3 7.1 8.1 7.7 8.4 6.5 4.6 4.0 4.4 5.2 6.4 7.1 7.5 7.4 7.0 6.9
8.7 9.8 9.5 9.2 9.6 9.6 9.4 7.1 5.3 5.7 5.3 5.2 4.7 4.7 5.4 5.1 6.0 5.6 7.1 6.6 7.0 7.3 7.8 8.1 7.6 4.8 4.3 5.1 6.0 6.5 6.7 6.8 6.9
9.0 9.4 9.6 8.9 9.6 9.5 9.5 7.0 5.6 5.9 5.1 4.8 5.2 5.3 5.0 5.3 6.7 6.0 6.3 7.1 6.9 7.1 7.2 7.2 7.9 8.5 4.8 4.4 4.3 4.8 5.7 6.2 6.5
8.3 8.4 9.5 9.7 9.6 9.5 9.4 9.1 7.0 6.1 6.1 5.5 5.3 5.9 5.2 5.2 7.0 6.9 7.1 7.4 7.5 7.0 7.1 7.7 7.8 7.6 8.0 7.2 5.5 4.7 5.1 6.0 6.6
6.2 6.2 8.0 9.4 9.5 9.3 9.4 7.7 7.2 6.9 6.0 5.7 5.2 6.2 6.1 6.6 6.4 7.3 7.7 8.6 7.8 7.9 7.8 7.7 7.5 8.0 9.1 8.5 8.7 6.5 5.1 5.7 6.4
5.8 7.0 8.8 9.4 9.3 8.8 9.1 7.4 7.0 6.8 6.5 4.5 4.9 4.9 5.5 6.2 6.7 7.7 9.0 9.4 8.5 8.2 8.8 8.3 8.4 8.9 9.6 8.5 2.5 2.3 3.3 4.7 5.5
4.0 4.5 5.7 8.0 7.5 7.8 7.6 7.1 7.3 6.5 6.2 6.6 5.9 5.4 3.8 5.2 5.0 5.4 6.3 7.7 9.2 9.0 8.7 7.0 9.4 7.3 2.1 2.6 1.0 1.4 2.6 3.6 4.5
Wind_Speed
12 12 11 9 6 10 10 12 13 14 14 14 12 12 9 7 7 4 4 3 7 4 4 4 5 4 5 5 5 5 4 4 4
14 13 13 11 9 14 13 14 14 15 16 15 14 12 10 9 7 7 5 4 4 5 5 5 5 4 4 4 4 4 4 4 3
14 14 14 14 13 15 16 15 15 15 16 17 15 13 12 9 7 8 8 6 6 7 6 6 6 5 5 5 4 4 4 3 3
15 14 15 16 17 16 18 18 17 17 17 17 16 16 14 12 8 9 9 10 9 9 9 8 7 7 7 6 6 6 6 5 4
17 17 17 18 17 17 18 18 19 19 19 19 18 17 15 15 10 11 10 10 12 11 12 11 10 9 9 8 8 8 7 7 6
15 15 15 15 19 20 19 20 19 19 19 19 20 18 16 16 13 13 10 12 15 14 13 14 13 13 12 11 11 10 10 9 9
13 15 14 16 20 20 19 20 21 20 17 18 17 17 18 16 14 14 13 14 15 16 15 15 16 15 15 14 14 13 12 12 12
10 13 14 15 18 17 18 18 19 19 18 14 15 18 19 15 15 15 13 15 16 17 17 17 16 17 16 16 16 15 15 15 15
10 7 13 14 14 12 16 10 14 17 19 18 16 16 15 15 14 15 17 16 16 17 17 17 17 18 18 18 18 17 17 17 17
11 9 11 10 11 12 10 10 11 11 13 16 16 13 15 17 15 14 18 19 17 17 18 19 18 18 19 20 19 20 20 20 20
10 11 10 9 13 14 11 8 11 12 13 15 15 15 15 17 17 15 14 20 18 18 19 19 20 21 20 20 21 21 21 21 21
12 10 11 11 13 15 12 10 9 9 11 15 14 12 16 13 16 15 16 14 18 19 20 21 21 20 22 22 20 21 22 22 22
12 10 10 13 11 9 8 9 8 9 9 11 9 10 12 16 14 15 13 12 14 17 19 20 21 21 21 21 22 21 22 22 24
13 10 10 14 10 10 9 7 7 7 7 9 8 9 8 9 8 11 13 15 11 12 12 16 17 19 20 21 22 23 21 22 24
13 10 11 11 10 10 9 11 6 7 5 5 8 8 7 9 9 8 8 9 10 11 12 11 13 17 16 17 21 22 21 21 21
11 10 11 11 12 11 12 9 8 6 3 2 5 4 6 9 10 7 7 8 8 9 9 9 10 9 14 16 18 20 22 22 21
9 11 11 12 10 12 12 12 7 5 6 3 2 3 2 1 5 4 6 8 5 5 5 6 8 10 11 12 11 15 18 20 21
9 9 10 10 9 9 10 9 11 6 2 3 3 2 2 2 2 3 4 6 3 2 3 5 9 11 12 13 12 14 18 18 19
14 12 11 10 8 9 9 7 6 6 5 3 3 7 3 3 2 0 2 3 3 3 4 7 9 11 12 10 21 17 14 16 18
12 10 11 7 5 6 5 4 4 4 3 6 4 2 4 5 3 2 3 5 4 5 6 9 8 12 14 13 15 17 15 14 14
Wind_Direction
232 230 238 243 240 206 177 171 170 171 177 181 183 179 181 202 222 208 148 234 118 158 158 135 143 144 139 138 135 135 128 119 108
254 234 227 231 244 211 196 188 184 184 185 191 193 194 197 224 215 210 204 201 191 185 182 183 180 171 164 164 161 156 149 139 133
265 258 239 230 229 217 212 205 198 196 197 198 196 193 205 219 217 213 206 148 205 198 196 200 200 198 194 191 189 185 181 176 173
263 254 250 240 235 226 216 211 207 204 205 206 202 194 203 236 221 215 212 174 213 210 201 206 214 214 213 209 206 206 204 204 204
260 256 249 241 237 233 229 220 215 209 208 209 203 202 210 225 223 224 221 176 211 229 202 204 213 219 222 223 224 224 224 222 223
259 247 252 249 238 238 237 228 223 219 218 219 202 200 223 226 225 223 196 208 219 225 225 207 209 215 219 221 225 228 231 233 232
303 287 275 253 244 241 239 229 220 220 228 213 215 219 230 232 228 230 192 213 222 227 231 224 216 218 220 220 223 228 230 233 238
283 283 259 249 236 241 230 232 230 225 227 232 212 220 228 229 229 233 199 221 226 228 233 238 232 223 226 228 226 227 232 235 235
278 267 275 264 249 241 236 220 227 226 228 225 230 223 225 228 231 231 201 218 229 234 235 239 243 238 229 231 233 231 230 234 239
278 271 262 257 253 250 244 228 225 226 228 229 230 229 224 227 229 234 198 215 223 231 236 240 243 246 240 236 236 233 232 231 234
276 271 267 266 260 253 244 244 239 233 226 229 230 231 226 226 227 230 223 216 226 231 236 242 245 248 250 246 238 238 239 235 234
274 273 269 262 264 265 254 242 241 234 230 233 233 232 231 224 222 219 230 216 219 231 239 243 246 249 249 249 248 239 240 238 238
274 270 266 266 262 260 253 245 238 232 223 225 221 227 227 223 216 223 225 225 236 219 224 237 246 250 254 254 256 254 249 243 239
279 272 267 261 258 258 252 245 231 238 219 229 221 221 213 214 219 216 229 228 233 242 222 228 240 246 249 255 259 261 260 256 253
282 276 270 264 254 253 251 248 224 242 227 211 219 218 207 206 210 199 219 214 223 238 246 243 240 231 242 254 258 260 261 265 266
291 281 268 258 250 245 249 242 233 226 222 354 221 221 222 222 204 190 205 203 205 229 244 251 259 259 231 244 255 265 268 269 271
295 289 275 261 246 242 245 235 235 236 208 194 238 221 187 241 243 231 216 211 191 201 215 255 272 280 283 284 273 266 272 274 275
293 271 278 269 265 256 246 238 231 242 198 189 122 311 114 44 94 254 186 172 158 211 302 296 302 295 293 299 291 261 261 273 287
347 329 292 274 266 254 251 240 233 229 193 114 111 107 76 73 80 211 297 33 355 348 321 319 311 307 299 340 31 18 352 315 300
354 349 340 284 265 258 228 220 219 211 180 151 159 160 128 149 138 209 315 345 324 350 338 334 313 19 47 31 24 22 18 2 346